This demonstration page uses our WeatherBlox Daily Observations layout. Learn more.

Left ArrowRight Arrow

Hourly Observations for February 3, 2015

Temp ( °F °C ) Dew Point ( °F °C ) Humidity (%) Winds ( mph kmh ) Pressure ( in mb ) Visibility ( mi km ) Precip ( " mm )
12:05 am 00:05 Clear with Mist and Fog 48 8.9 47 8.3 96 96 NW 5 7 30.12 1020 3 5 0.00 0.00
12:16 am 00:16 Clear with Mist and Fog 46 8 46 8 100 100 Calm 30.12 1020 2 3 0.00 0.00
12:19 am 00:19 Clear with Mist and Fog 46 7.8 46 7.8 100 100 Calm 30.12 1020 1 1 0.00 0.00
12:50 am 00:50 Mostly Clear with Mist and Fog 46 8 46 8 100 100 Calm 30.12 1020 2 3 0.00 0.00
12:53 am 00:53 Mostly Clear with Mist and Fog 47 8.3 46 7.8 97 97 Calm 30.11 1020 5 8 0.00 0.00
1:53 am 01:53 Partly Cloudy with Mist and Fog 47 8.3 47 8.3 100 100 Calm 30.11 1020 4 6 0.00 0.00
1:57 am 01:57 Mostly Clear with Mist and Fog 47 8.3 47 8.3 100 100 Calm 30.12 1020 2 3 0.00 0.00
2:03 am 02:03 Mostly Clear with Mist and Fog 46 8 46 8 100 100 Calm 30.12 1020 1 1 0.00 0.00
2:27 am 02:27 Mostly Cloudy with Mist and Fog 48 8.9 47 8.3 96 96 Calm 30.12 1020 1 2 0.00 0.00
2:36 am 02:36 Cloudy with Mist and Fog 48 9 46 8 94 94 Calm 30.12 1020 2 3 0.00 0.00
2:53 am 02:53 Mostly Cloudy with Mist and Fog 47 8.3 46 7.8 97 97 Calm 30.11 1020 3 4 0.00 0.00
3:05 am 03:05 Mostly Clear with Mist and Fog 47 8.3 46 7.8 97 97 Calm 30.12 1020 4 6 0.00 0.00
3:20 am 03:20 Mostly Clear with Mist and Fog 46 8 46 8 100 100 Calm 30.12 1020 3 5 0.00 0.00
3:40 am 03:40 Clear with Mist and Fog 46 8 46 8 100 100 ESE 3 6 30.12 1020 2 3 0.00 0.00
3:46 am 03:46 Clear with Mist and Fog 46 8 45 7 93 93 Calm 30.12 1020 1 1 0.00 0.00
3:53 am 03:53 Clear with Fog 46 7.8 45 7.2 96 96 Calm 30.11 1020 1 1 0.00 0.00
4:42 am 04:42 Clear with Mist and Fog 46 8 45 7 93 93 Calm 30.12 1020 2 2 0.00 0.00
4:53 am 04:53 Clear with Mist and Fog 46 7.8 45 7.2 96 96 Calm 30.11 1020 3 5 0.00 0.00
5:01 am 05:01 Clear with Mist and Fog 46 7.8 45 7.2 96 96 Calm 30.12 1020 2 3 0.00 0.00
5:11 am 05:11 Clear with Mist and Fog 45 7.2 45 7.2 100 100 Calm 30.12 1020 3 5 0.00 0.00
5:53 am 05:53 Clear with Mist and Fog 45 7.2 44 6.7 97 97 Calm 30.11 1020 4 6 0.00 0.00
5:57 am 05:57 Clear with Mist and Fog 45 7.2 44 6.7 97 97 Calm 30.12 1020 2 3 0.00 0.00
5:58 am 05:58 Clear with Mist and Fog 45 7 45 7 100 100 undefined N/A N/A 2 3 0.00 0.00
6:01 am 06:01 Clear with Mist and Fog 45 7.2 44 6.7 97 97 Calm 30.12 1020 1 1 0.00 0.00
6:23 am 06:23 Mostly Cloudy with Fog 44 6.7 44 6.7 100 100 Calm 30.12 1020 1 1 0.00 0.00
6:53 am 06:53 Mostly Cloudy with Fog 44 6.7 44 6.7 100 100 Calm 30.11 1020 1 1 0.00 0.00
7:25 am 07:25 Sunny with Mist and Fog 44 6.7 44 6.7 100 100 Calm 30.12 1020 2 3 0.00 0.00
7:33 am 07:33 Sunny with Patchy Fog 45 7.2 44 6.7 97 97 Calm 30.12 1020 10 16 0.00 0.00
7:53 am 07:53 Partly Cloudy with Patchy Fog 45 7.2 44 6.7 97 97 Calm 30.12 1020 10 16 0.00 0.00
8:17 am 08:17 Partly Cloudy with Mist and Fog 45 7.2 44 6.7 97 97 Calm 30.12 1020 2 3 0.00 0.00
8:53 am 08:53 Sunny with Patchy Fog 47 8.3 46 7.8 97 97 Calm 30.12 1020 10 16 0.00 0.00
9:12 am 09:12 Partly Cloudy with Mist and Fog 48 9 46 8 94 94 Calm 30.12 1020 1 2 0.00 0.00
9:21 am 09:21 Partly Cloudy with Mist and Fog 49 9.4 48 8.9 97 97 Calm 30.15 1021 2 3 0.00 0.00
9:34 am 09:34 Mostly Sunny 52 11 48 9 88 88 Calm 30.15 1021 10 16 0.00 0.00
9:53 am 09:53 Sunny 52 11.1 50 10 93 93 Calm 30.14 1021 10 16 0.00 0.00
10:53 am 10:53 Sunny 56 13.3 50 10 81 81 Calm 30.13 1020 10 16 0.00 0.00
11:53 am 11:53 Sunny 60 15.6 52 11.1 75 75 Calm 30.13 1020 10 16 0.00 0.00
12:53 pm 12:53 Sunny 61 16.1 52 11.1 72 72 Calm 30.12 1020 10 16 0.00 0.00
1:53 pm 13:53 Sunny 61 16.1 52 11.1 72 72 Calm 30.11 1020 10 16 0.00 0.00
2:53 pm 14:53 Sunny 61 16.1 52 11.1 72 72 SE 3 6 30.07 1018 10 16 0.00 0.00
3:53 pm 15:53 Sunny 62 16.7 51 10.6 67 67 Calm 30.08 1019 10 16 0.00 0.00
4:53 pm 16:53 Sunny 61 16.1 51 10.6 70 70 Calm 30.07 1018 10 16 0.00 0.00
5:53 pm 17:53 Clear 56 13.3 52 11.1 87 87 Calm 30.08 1019 10 16 0.00 0.00
6:53 pm 18:53 Clear 55 12.8 52 11.1 90 90 NNW 3 6 30.09 1019 10 16 0.00 0.00
7:53 pm 19:53 Clear 53 11.7 50 10 89 89 Calm 30.09 1019 10 16 0.00 0.00
8:53 pm 20:53 Clear 50 10 49 9.4 96 96 Calm 30.10 1019 10 16 0.00 0.00
9:53 pm 21:53 Clear 50 10 49 9.4 96 96 Calm 30.09 1019 10 16 0.00 0.00
10:53 pm 22:53 Clear with Mist and Fog 49 9.4 48 8.9 97 97 Calm 30.09 1019 6 10 0.00 0.00
10:57 pm 22:57 Clear with Mist and Fog 49 9.4 47 8.3 93 93 Calm 30.09 1019 1 2 0.00 0.00
11:07 pm 23:07 Clear with Mist and Fog 48 8.9 47 8.3 96 96 Calm 30.09 1019 3 4 0.00 0.00
11:14 pm 23:14 Clear with Mist and Fog 48 9 46 8 94 94 Calm 30.09 1019 1 2 0.00 0.00
11:23 pm 23:23 Clear with Fog 49 9.4 48 8.9 97 97 Calm 30.09 1019 1 1 0.00 0.00
11:34 pm 23:34 Clear with Mist and Fog 48 9 46 8 94 94 Calm 30.09 1019 2 3 0.00 0.00
11:36 pm 23:36 Clear with Mist and Fog 48 9 48 9 100 100 Calm 30.09 1019 3 5 0.00 0.00
11:46 pm 23:46 Clear with Mist and Fog 48 9 46 8 94 94 Calm 30.09 1019 2 3 0.00 0.00
11:49 pm 23:49 Clear with Mist and Fog 48 9 46 8 94 94 Calm 30.09 1019 1 1 0.00 0.00
11:53 pm 23:53 Clear with Fog 48 8.9 47 8.3 96 96 Calm 30.09 1019 1 1 0.00 0.00

Powered by AerisWeather